Weather History for KCDD - January, 2014

Change the Weather History Date:

Wednesday, January 29, 2014

  Actual Average Record
Temperature  
Mean Temperature -3 °F -  
Max Temperature 19 °F 19 °F 39 °F (1999)
Min Temperature -25 °F 1 °F -29 °F (2004)
Degree Days  
Heating Degree Days 68    
Moisture  
Dew Point -8 °F    
Average Humidity 67    
Maximum Humidity 84    
Minimum Humidity 45    
Precipitation  
Precipitation 0.00 in - - ()
Sea Level Pressure  
Sea Level Pressure 29.61 in    
Wind  
Wind Speed 4 mph (SSW)    
Max Wind Speed 13 mph    
Max Gust Speed 18 mph    
Visibility 10 miles    
Events Snow    
Averages and records for this station are not official NWS values.
T = Trace of Precipitation, MM = Missing Value Source: NWS Daily Summary

Daily Weather History Graph

Daily Weather History Graph

Search for Another Location

Airport or City:

Trip Planner

Search our weather history database for the weather conditions in past years. The results will help you decide how hot, cold, wet, or windy it might be!

Date:

Astronomy

Jan. 29, 2014 Rise Set
Actual Time 7:42 AM CST 5:04 PM CST
Civil Twilight 7:08 AM CST 5:38 PM CST
Nautical Twilight 6:30 AM CST 6:16 PM CST
Astronomical Twilight 5:54 AM CST 6:52 PM CST
Moon 6:19 AM CST (1/29) 4:05 PM CST (1/29)
Length of Visible Light 10h 30m
Length of Day
9h 22m
Waning Crescent, 2% of the Moon is Illuminated
Jan 29
Waning Crescent
Jan 30
New
Feb 6
First Quarter
Feb 14
Full
Feb 22
Last Quarter

Hourly Weather History & Observations

Time (CST) Temp. Windchill Dew Point Humidity Pressure Visibility Wind Dir Wind Speed Gust Speed Precip Events Conditions
12:01 AM -7.6 °F -16.5 °F -13.0 °F 77% 29.84 in 10.0 mi West 3.5 mph - N/A   Mostly Cloudy
12:21 AM -7.6 °F -16.5 °F -13.0 °F 77% 29.84 in 10.0 mi SSW 3.5 mph - N/A   Scattered Clouds
12:42 AM -7.6 °F -16.5 °F -14.8 °F 71% 29.84 in 10.0 mi SSW 3.5 mph - N/A   Clear
1:01 AM -9.4 °F - -14.8 °F 77% 29.84 in 10.0 mi Calm Calm - N/A   Clear
1:22 AM -9.4 °F - -14.8 °F 77% 29.83 in 10.0 mi Calm Calm - N/A   Clear
1:41 AM -11.2 °F - -16.6 °F 77% 29.83 in 10.0 mi Calm Calm - N/A   Clear
2:01 AM -11.2 °F - -16.6 °F 77% 29.83 in 10.0 mi Calm Calm - N/A   Clear
2:21 AM -14.8 °F - -20.2 °F 77% 29.83 in 10.0 mi Calm Calm - N/A   Clear
2:41 AM -18.4 °F - -23.8 °F 76% 29.83 in 10.0 mi Calm Calm - N/A   Clear
3:01 AM -20.2 °F - -25.6 °F 76% 29.82 in 10.0 mi Calm Calm - N/A   Clear
3:21 AM -22.0 °F - -27.4 °F 76% 29.82 in 10.0 mi Calm Calm - N/A   Clear
3:41 AM -22.0 °F - -27.4 °F 76% 29.81 in 10.0 mi Calm Calm - N/A   Clear
4:02 AM -22.0 °F - -27.4 °F 76% 29.81 in 10.0 mi Calm Calm - N/A   Clear
4:21 AM -23.8 °F - -29.2 °F 76% 29.80 in 10.0 mi Calm Calm - N/A   Clear
4:41 AM -23.8 °F - -29.2 °F 76% 29.81 in 10.0 mi Calm Calm - N/A   Clear
5:02 AM -23.8 °F - -31.0 °F 69% 29.81 in 10.0 mi Calm Calm - N/A   Clear
5:21 AM -23.8 °F - -31.0 °F 69% 29.80 in 10.0 mi Calm Calm - N/A   Clear
5:41 AM -25.6 °F - -31.0 °F 76% 29.79 in 10.0 mi Calm Calm - N/A   Clear
6:01 AM -25.6 °F - -32.8 °F 69% 29.78 in 10.0 mi Calm Calm - N/A   Clear
6:21 AM -25.6 °F - -31.0 °F 76% 29.78 in 10.0 mi Calm Calm - N/A   Clear
6:41 AM -25.6 °F -37.1 °F -31.0 °F 76% 29.78 in 10.0 mi SSE 3.5 mph - N/A   Clear
7:01 AM -23.8 °F - -27.4 °F 83% 29.77 in 10.0 mi Calm Calm - N/A   Clear
7:21 AM -20.2 °F - -25.6 °F 76% 29.75 in 10.0 mi Calm Calm - N/A   Clear
7:41 AM -16.6 °F - -20.2 °F 84% 29.74 in 10.0 mi Calm Calm - N/A   Clear
8:01 AM -13.0 °F -27.0 °F -16.6 °F 84% 29.73 in 10.0 mi South 5.8 mph - N/A   Clear
8:21 AM -11.2 °F -23.0 °F -14.8 °F 84% 29.72 in 10.0 mi South 4.6 mph - N/A   Clear
8:41 AM -9.4 °F -20.9 °F -14.8 °F 77% 29.72 in 10.0 mi South 4.6 mph - N/A   Clear
9:01 AM -9.4 °F -20.9 °F -13.0 °F 84% 29.71 in 10.0 mi SSE 4.6 mph - N/A   Clear
9:21 AM -5.8 °F -21.2 °F -9.4 °F 84% 29.70 in 10.0 mi South 8.1 mph - N/A   Clear
9:41 AM -2.2 °F -15.6 °F -7.6 °F 78% 29.69 in 10.0 mi South 6.9 mph - N/A   Clear
10:01 AM 1.4 °F -13.5 °F -5.8 °F 72% 29.68 in 10.0 mi South 9.2 mph - N/A   Clear
10:21 AM 5.0 °F -5.6 °F -5.8 °F 61% 29.67 in 10.0 mi SSE 5.8 mph - N/A   Clear
10:41 AM 6.8 °F -3.5 °F -4.0 °F 61% 29.66 in 10.0 mi South 5.8 mph - N/A   Clear
11:01 AM 6.8 °F -6.9 °F -4.0 °F 61% 29.65 in 10.0 mi South 9.2 mph - N/A   Clear
11:21 AM 8.6 °F -4.7 °F -2.2 °F 62% 29.64 in 10.0 mi South 9.2 mph 17.3 mph N/A   Clear
11:41 AM 10.4 °F -0.4 °F -2.2 °F 57% 29.61 in 10.0 mi SSE 6.9 mph - N/A   Clear
12:01 PM 10.4 °F -1.5 °F -0.4 °F 62% 29.59 in 10.0 mi South 8.1 mph - N/A   Clear
12:21 PM 12.2 °F 0.7 °F -0.4 °F 57% 29.57 in 10.0 mi South 8.1 mph - N/A   Clear
12:41 PM 14.0 °F 2.0 °F 1.4 °F 57% 29.54 in 10.0 mi SSE 9.2 mph 16.1 mph N/A   Scattered Clouds
1:01 PM 14.0 °F 5.1 °F 1.4 °F 57% 29.52 in 10.0 mi SSE 5.8 mph 17.3 mph N/A   Scattered Clouds
1:21 PM 15.8 °F 7.2 °F 1.4 °F 53% 29.50 in 10.0 mi SSE 5.8 mph - N/A   Clear
1:41 PM 15.8 °F 5.1 °F -0.4 °F 49% 29.47 in 10.0 mi SSE 8.1 mph - N/A   Scattered Clouds
2:01 PM 15.8 °F 2.1 °F -0.4 °F 49% 29.45 in 10.0 mi South 12.7 mph 17.3 mph N/A   Mostly Cloudy
2:21 PM 15.8 °F 3.4 °F -0.4 °F 49% 29.44 in 10.0 mi South 10.4 mph 17.3 mph N/A   Overcast
2:41 PM 17.6 °F 8.2 °F -0.4 °F 45% 29.44 in 10.0 mi South 6.9 mph - N/A   Overcast
3:01 PM 17.6 °F 8.2 °F 1.4 °F 49% 29.44 in 10.0 mi South 6.9 mph - N/A   Mostly Cloudy
3:21 PM 17.6 °F 10.7 °F 1.4 °F 49% 29.43 in 10.0 mi South 4.6 mph - N/A   Overcast
3:41 PM 17.6 °F 8.2 °F 1.4 °F 49% 29.42 in 10.0 mi South 6.9 mph 17.3 mph N/A   Mostly Cloudy
4:01 PM 17.6 °F 9.3 °F 1.4 °F 49% 29.42 in 10.0 mi South 5.8 mph - N/A   Overcast
4:21 PM 17.6 °F 7.3 °F 1.4 °F 49% 29.41 in 10.0 mi South 8.1 mph - N/A   Overcast
4:41 PM 17.6 °F 7.3 °F 3.2 °F 53% 29.41 in 10.0 mi South 8.1 mph - N/A   Overcast
5:01 PM 17.6 °F 10.7 °F 3.2 °F 53% 29.41 in 10.0 mi South 4.6 mph - N/A   Overcast
5:21 PM 17.6 °F 9.3 °F 3.2 °F 53% 29.41 in 10.0 mi South 5.8 mph - N/A   Overcast
5:41 PM 17.6 °F 12.3 °F 5.0 °F 58% 29.42 in 10.0 mi South 3.5 mph - N/A   Overcast
6:01 PM 17.6 °F 10.7 °F 5.0 °F 58% 29.41 in 10.0 mi South 4.6 mph - N/A   Overcast
6:21 PM 19.4 °F 10.4 °F 5.0 °F 54% 29.42 in 10.0 mi SW 6.9 mph - N/A   Overcast
6:41 PM 19.4 °F 11.5 °F 5.0 °F 54% 29.43 in 10.0 mi WSW 5.8 mph - N/A   Overcast
7:01 PM 19.4 °F 9.5 °F 6.8 °F 58% 29.44 in 10.0 mi West 8.1 mph - N/A   Overcast
7:21 PM 19.4 °F 10.4 °F 6.8 °F 58% 29.44 in 10.0 mi WSW 6.9 mph - N/A   Overcast
7:41 PM 17.6 °F 9.3 °F 6.8 °F 63% 29.44 in 10.0 mi West 5.8 mph - N/A   Overcast
8:01 PM 17.6 °F 9.3 °F 8.6 °F 68% 29.45 in 10.0 mi WSW 5.8 mph - N/A   Overcast
8:21 PM 15.8 °F 5.1 °F 6.8 °F 68% 29.45 in 10.0 mi WSW 8.1 mph - N/A   Overcast
8:41 PM 15.8 °F 7.2 °F 6.8 °F 68% 29.46 in 7.0 mi West 5.8 mph - N/A Snow Light Snow
9:01 PM 15.8 °F 6.1 °F 6.8 °F 68% 29.47 in 10.0 mi WSW 6.9 mph - N/A Snow Light Snow
9:21 PM 15.8 °F 8.6 °F 6.8 °F 68% 29.47 in 10.0 mi WSW 4.6 mph - N/A   Overcast
9:41 PM 14.0 °F 2.0 °F 6.8 °F 73% 29.48 in 10.0 mi West 9.2 mph - N/A Snow Light Snow
10:01 PM 14.0 °F 3.9 °F 6.8 °F 73% 29.48 in 7.0 mi West 6.9 mph - N/A Snow Light Snow
10:21 PM 12.2 °F 2.9 °F 5.0 °F 73% 29.48 in 10.0 mi West 5.8 mph - N/A   Mostly Cloudy
10:41 PM 12.2 °F - 3.2 °F 67% 29.49 in 10.0 mi Calm Calm - N/A   Scattered Clouds
11:01 PM 10.4 °F 0.8 °F 3.2 °F 73% 29.51 in 10.0 mi West 5.8 mph - N/A   Scattered Clouds
11:21 PM 10.4 °F 2.2 °F 1.4 °F 67% 29.52 in 10.0 mi West 4.6 mph - N/A   Scattered Clouds
11:41 PM 8.6 °F -2.6 °F -0.4 °F 67% 29.52 in 10.0 mi West 6.9 mph 18.4 mph N/A   Mostly Cloudy